Location: ?????????
(55.6553°N, 38.9075°E)
Time: 16:24:07
(UTC+00:00)

SL-16 R/B - Pass Details

Date: 18 October 2019
Orbit: 840 x 850 km, 71.0° (Epoch: 19 November)

Event Time Altitude Azimuth Distance (km) Brightness Sun altitude
Rises 02:38:13 0° 189° (S) 3,388 5.2 -12.2°
Reaches altitude 10° 02:40:43 10° 183° (S) 2,458 4.6 -11.9°
Maximum altitude 02:46:03 45° 112° (ESE) 1,138 3.4 -11.1°
Drops below altitude 10° 02:51:26 10° 42° (NE) 2,481 5.2 -10.4°
Sets 02:53:59 0° 36° (NE) 3,422 5.9 -10.0°
